ENBN Weather Reports


time (UTC)temp
F
wind
direction
speed
knots
gust
knots
rain 1hr
in
rain 24hr
in
rain mn
in
humidity
%
barometer
mb
20260504150308 39 360 8.7 0.0 0.00 0.00 0.00 80 999.0
20260504140309 41 350 7.8 0.0 0.00 0.00 0.00 75 999.0
20260504130308 39 360 6.1 0.0 0.00 0.00 0.00 80 999.0
20260504120308 39 270 7.8 0.0 0.00 0.00 0.00 80 999.0
20260504110307 39 260 13.0 0.0 0.00 0.00 0.00 80 998.0
20260504100307 41 220 11.3 0.0 0.00 0.00 0.00 80 998.0
20260504080307 37 260 11.3 0.0 0.00 0.00 0.00 93 998.0
20260504070308 39 230 18.2 0.0 0.00 0.00 0.00 86 995.0
20260504050307 37 160 11.3 0.0 0.00 0.00 0.00 86 996.0
20260504043309 37 180 12.2 0.0 0.00 0.00 0.00 86 997.0
20260504040307 37 190 12.2 0.0 0.00 0.00 0.00 86 997.0
20260504033306 39 180 12.2 0.0 0.00 0.00 0.00 75 997.0
20260504030307 41 170 13.0 0.0 0.00 0.00 0.00 70 998.0
20260504023308 41 170 13.0 0.0 0.00 0.00 0.00 70 998.0
20260504020307 41 170 14.8 0.0 0.00 0.00 0.00 70 999.0
20260504013308 41 180 13.0 0.0 0.00 0.00 0.00 65 999.0
20260504010308 41 180 13.9 0.0 0.00 0.00 0.00 65 1000.0
20260504003307 41 180 13.0 0.0 0.00 0.00 0.00 65 1000.0
20260504000308 41 190 13.0 0.0 0.00 0.00 0.00 65 1000.0
20260503233306 41 190 13.0 0.0 0.00 0.00 0.00 65 1001.0
20260503230308 41 190 13.0 0.0 0.00 0.00 0.00 65 1001.0
20260503223308 41 190 14.8 0.0 0.00 0.00 0.00 70 1002.0
20260503220308 41 200 15.6 0.0 0.00 0.00 0.00 65 1002.0
20260503213306 41 210 17.4 0.0 0.00 0.00 0.00 70 1003.0
20260503210306 41 220 19.1 0.0 0.00 0.00 0.00 70 1003.0
20260503203306 41 220 18.2 0.0 0.00 0.00 0.00 70 1003.0
20260503200309 42 210 15.6 0.0 0.00 0.00 0.00 60 1004.0
20260503193308 41 190 13.9 0.0 0.00 0.00 0.00 60 1004.0
20260503190310 41 190 13.9 26.1 0.00 0.00 0.00 65 1004.0
20260503183309 41 180 11.3 0.0 0.00 0.00 0.00 65 1004.0
20260503180309 41 200 14.8 0.0 0.00 0.00 0.00 65 1005.0
20260503173308 41 200 13.9 0.0 0.00 0.00 0.00 65 1005.0
20260503170307 41 210 18.2 0.0 0.00 0.00 0.00 65 1005.0